TimeCDT,TemperatureF,Dew PointF,Humidity,Sea Level PressureIn,VisibilityMPH,Wind Direction,Wind SpeedMPH,Gust SpeedMPH,PrecipitationIn,Events,Conditions,WindDirDegrees,DateUTC
12:56 AM,30.0,25.0,82,29.82,10.0,NW,5.8,-,0.00,,Overcast,320,2013-04-13 05:56:00
1:56 AM,28.9,24.1,82,29.82,10.0,WNW,4.6,-,0.00,,Overcast,300,2013-04-13 06:56:00
2:56 AM,28.9,24.1,82,29.82,10.0,WNW,6.9,-,N/A,,Overcast,300,2013-04-13 07:56:00
3:56 AM,28.9,23.0,78,29.82,10.0,WNW,4.6,-,N/A,,Overcast,300,2013-04-13 08:56:00
4:56 AM,28.0,24.1,85,29.83,10.0,WNW,3.5,-,N/A,,Overcast,300,2013-04-13 09:56:00
5:56 AM,27.0,23.0,85,29.83,10.0,Calm,Calm,-,N/A,,Overcast,0,2013-04-13 10:56:00
6:56 AM,25.0,23.0,92,29.85,10.0,West,4.6,-,N/A,,Overcast,270,2013-04-13 11:56:00
7:21 AM,26.6,24.8,93,29.82,10.0,West,5.8,-,N/A,,Mostly Cloudy,270,2013-04-13 12:21:00
7:33 AM,26.6,24.8,93,29.83,7.0,West,5.8,-,0.00,Snow,Light Snow,270,2013-04-13 12:33:00
7:56 AM,28.0,25.0,88,29.87,9.0,West,5.8,-,0.00,,Overcast,270,2013-04-13 12:56:00
8:36 AM,28.4,24.8,86,29.83,2.5,West,4.6,-,0.00,Snow,Light Snow,280,2013-04-13 13:36:00
8:43 AM,28.4,24.8,86,29.83,3.0,West,6.9,-,0.00,Snow,Light Snow,280,2013-04-13 13:43:00
8:56 AM,28.9,25.0,85,29.86,4.0,West,6.9,-,0.00,Snow,Light Snow,280,2013-04-13 13:56:00
9:11 AM,28.4,26.6,93,29.82,5.0,West,5.8,-,0.00,Snow,Light Snow,270,2013-04-13 14:11:00
9:48 AM,28.4,24.8,86,29.83,6.0,West,6.9,-,0.00,Snow,Light Snow,270,2013-04-13 14:48:00
9:56 AM,28.9,25.0,85,29.87,8.0,WSW,8.1,-,0.00,Snow,Light Snow,250,2013-04-13 14:56:00
10:29 AM,30.2,26.6,86,29.83,4.0,West,6.9,-,0.00,Snow,Light Snow,260,2013-04-13 15:29:00
10:42 AM,30.2,26.6,86,29.83,5.0,WSW,10.4,-,0.00,Snow,Light Snow,250,2013-04-13 15:42:00
10:56 AM,30.0,26.1,85,29.87,8.0,WSW,5.8,-,0.00,Snow,Light Snow,250,2013-04-13 15:56:00
11:56 AM,33.1,25.0,72,29.88,10.0,WNW,5.8,-,0.00,,Overcast,300,2013-04-13 16:56:00
12:13 PM,35.6,23.0,60,29.84,10.0,WNW,10.4,-,N/A,,Mostly Cloudy,290,2013-04-13 17:13:00
12:56 PM,33.1,21.9,64,29.88,10.0,West,13.8,-,N/A,,Overcast,280,2013-04-13 17:56:00
1:56 PM,33.1,23.0,66,29.90,10.0,West,9.2,-,N/A,,Overcast,260,2013-04-13 18:56:00
2:56 PM,34.0,23.0,64,29.90,10.0,WNW,13.8,-,N/A,,Overcast,290,2013-04-13 19:56:00
3:56 PM,35.1,23.0,61,29.90,10.0,NW,8.1,-,N/A,,Overcast,310,2013-04-13 20:56:00
4:56 PM,33.1,23.0,66,29.91,10.0,NNW,8.1,-,N/A,,Overcast,340,2013-04-13 21:56:00
5:56 PM,33.1,24.1,70,29.93,10.0,NNW,6.9,-,0.00,,Overcast,330,2013-04-13 22:56:00
6:56 PM,33.1,23.0,66,29.94,10.0,North,3.5,-,N/A,,Overcast,360,2013-04-13 23:56:00
7:56 PM,33.1,21.9,64,29.94,10.0,Calm,Calm,-,N/A,,Overcast,0,2013-04-14 00:56:00
8:56 PM,30.0,21.9,72,29.96,10.0,Calm,Calm,-,N/A,,Clear,0,2013-04-14 01:56:00
9:56 PM,27.0,21.9,81,29.98,10.0,SSW,3.5,-,N/A,,Clear,200,2013-04-14 02:56:00
10:56 PM,25.0,21.9,88,30.00,10.0,Calm,Calm,-,N/A,,Clear,0,2013-04-14 03:56:00
11:56 PM,25.0,21.9,88,30.01,10.0,Calm,Calm,-,N/A,,Clear,0,2013-04-14 04:56:00